Location: Seattle
(47.6064°N, 122.3308°W)
Time: 01:27:56
(UTC-08:00)

Envisat - Pass Details

Date: 01 November 2020
Orbit: 764 x 766 km, 98.1° (Epoch: 03 December)

Event Time Altitude Azimuth Distance (km) Brightness Sun altitude
Rises 18:52:29 0° 222° (SW) 3,224 6.8 -20.9°
Reaches altitude 10° 18:56:33 10° 255° (WSW) 2,305 6.5 -21.6°
Maximum altitude 18:58:15 12° 275° (W) 2,200 6.5 -21.9°
Drops below altitude 10° 18:59:56 10° 294° (WNW) 2,310 6.4 -22.2°
Sets 19:04:04 0° 327° (NNW) 3,244 6.7 -22.9°
